Location: Newark
(13.8117°N, 3.6025°W)
Time: 04:03:13
(UTC+00:00)

Explorer 11/Cluster Stage 4 - Pass Details

Date: 29 August 2019
Orbit: 467 x 1260 km, 28.8° (Epoch: 19 September)

Event Time Altitude Azimuth Distance (km) Brightness Sun altitude
Rises 12:04:22 0° 302° (WNW) 4,081 10.2 84.8°
Reaches altitude 10° 12:07:27 10° 311° (NW) 3,177 9.8 85.1°
Maximum altitude 12:14:53 38° 16° (NNE) 1,827 9.0 85.5°
Drops below altitude 10° 12:22:16 10° 82° (E) 3,154 9.8 85.2°
Sets 12:25:18 0° 90° (E) 4,050 10.2 84.9°
